Kosmos-1555

operational
NORAD ID: 14978 Int'l Des: 1984-047 Owner: GUKOS Country: SU Constellation: GLONASS
MEOCIRCULAR

Kosmos-1555について

説明を読み込み中...

リアルタイム位置

3D地球を読み込み中...

次回通過

高度履歴

Altitude vs Time

uPlot chart will show altitude changes over time

軌道要素

1 14978U 84047B 26052.26577687 -.00000051 00000-0 00000+0 0 9991
2 14978 66.4347 332.4223 0011707 173.6568 300.0411 2.13101693297038
Epoch: Feb 21, 2026 • Age: 235 hours

現在のステータス

高度 19149.3 km
速度 3.95 km/s
衛星直下点 53.19°N, 171.74°W
打ち上げ日 May 19, 1984
運用期間 41.7 years
タイプ other

技術仕様

分類 Payload
質量 1300.00 kg
乾燥質量 1200.00 kg
総質量 1300.00 kg
長さ 4.00 m
直径 1.50 m
スパン 7.80 m
形状 Cyl + Ant + 2 Pan
製造者 OAZ
バスタイプ Uragan
フェーズステータス In Orbit
所有者/国 GUKOS/SU

大規模コンステレーション

Loading constellations...